Regional Weather Roundup
Issued by NWS Wakefield, VA

Home | Current Version | Previous Version | Text Only | Print | Product List | Glossary On
Versions: 1 2 3 4 5 6 7 8 9 10 11 12 13 14 15 16 17 18 19 20 21 22 23 24 25 26 27
000
ASUS41 KAKQ 211615
RWRAKQ

REGIONAL WEATHER ROUNDUP
NATIONAL WEATHER SERVICE WAKEFIELD VA
1200 PM EDT MON MAY 21 2018

Note: "fair" indicates few or no clouds below 12,000 feet with no
significant weather and/or obstructions to visibility. * = Denotes
station may not report precipitation (e.g., rain,snow,etc.),
thunder or fog.

VAZ042-051-052>054-056-211700-
NORTHERN VIRGINIA

CITY           SKY/WX    TMP DP  RH WIND       PRES   REMARKS
WASH NATIONAL  PTSUNNY   77  57  50 CALM      30.21S
DULLES         FAIR      77  61  57 CALM      30.21S
FORT BELVOIR   NOT AVBL
QUANTICO       FAIR      78  63  59 NE6       30.21F
FREDERICKSBRG* FAIR      77  64  63 E5        30.19F
STAFFORD*      FAIR      78  64  63 E7        30.24F
WARRENTON      PTSUNNY   76  58  53 NE3       30.20F
CULPEPER*      FAIR      76  60  59 CALM      30.21F
MANASSAS*      FAIR      76  61  59 SE5       30.21S
LEESBURG*      FAIR      75  63  64 CALM      30.23S
WINCHESTER     PTSUNNY   70  59  68 E5        30.24S
FRONT ROYAL*   FAIR      72  63  73 NE5       30.21S
LURAY*         FAIR      73  63  68 N6        30.21S
$$

VAZ048-049-060>072-079>083-211700-
CENTRAL AND SOUTH CENTRAL VIRGINIA

CITY           SKY/WX    TMP DP  RH WIND       PRES   REMARKS
RICHMOND       PTSUNNY   78  68  71 E10       30.18S
CHESTERFIELD*  CLOUDY    77  68  73 NE8       30.18S
PETERSBURG*    CLOUDY    75  69  80 NE5       30.17F
HANOVER        FAIR      79  66  64 CALM      30.19F
TAPPAHANNOCK*  FAIR      77  66  68 N3        30.20S
QUINTON*       CLOUDY    76  68  76 E13       30.18S
CHARLOTTSVILLE FAIR      79  64  60 E8        30.20F
GORDONSVILLE*  FAIR      76  66  71 N6        30.20F
ORANGE*        FAIR      75  63  64 NE5       30.21S
LOUISA*        FAIR      76  65  67 N7        30.24F
BUMPASS*       FAIR      77  64  64 N5        30.20S
FARMVILLE*     FAIR      80  80 100 NE9       30.16F
CREWE*         CLOUDY    78  75  90 E3        30.17S
FORT PICKETT*  CLOUDY    76  74  92 NE10      30.17S
CHASE CITY*    CLOUDY    78  76  94 NE5       30.17S
CLARKSVILLE*   CLOUDY    77  73  88 E7        30.17R
SOUTH HILL*    CLOUDY    80  73  81 E3        30.21S
LAWRENCEVILLE* CLOUDY    79  71  77 CALM      30.15S
EMPORIA*       CLOUDY    81  70  69 E3        30.17R
$$

VAZ088>098-211700-
SOUTHEAST VIRGINIA

CITY           SKY/WX    TMP DP  RH WIND       PRES   REMARKS
NORFOLK        LGT RAIN  70  63  78 NE14      30.18R
VIRGINIA BEACH CLOUDY    70  64  81 E12       30.17R
NORFOLK NAVAL  CLOUDY    70  60  70 E15       30.19R
WEST POINT*    PTSUNNY   75  64  69 E8        30.20S
SALUDA*        PTSUNNY   73  63  70 E7        30.19S
NEWPORT NEWS   CLOUDY    72  61  68 NE12      30.18S
LANGLEY AFB    NOT AVBL
FORT EUSTIS    NOT AVBL
WILLIAMSBURG*  FAIR      79  63  57 CALM      30.19S
HR EXEC AP*    CLOUDY    76  69  79 NE7       30.17R
FRANKLIN*      CLOUDY    81  72  74 NE9       30.15S
US460-WAKEFLD  CLOUDY    75  69  81 VRB7      30.17R HAZE
$$

VAZ020-022-025-037-045-211700-
WEST CENTRAL AND SOUTHWEST VIRGINIA

CITY           SKY/WX    TMP DP  RH WIND       PRES   REMARKS
STAUNTON*      CLOUDY    74  63  69 CALM      30.23F
WAYNESBORO*    PTSUNNY   75  65  71 E6        30.23S
HOT SPRINGS VA FAIR      71  59  65 S6        30.32S HAZE
LYNCHBURG      FAIR      78  64  61 NE10      30.20S
DANVILLE       FAIR      81  72  74 VRB7      30.16S
SOUTH BOSTON*  PTSUNNY   80  71  73 NE3       30.17R
MARTINSVILLE   FAIR      82  67  61 E3        30.20F
ROANOKE        FAIR      80  65  59 S7        30.21F
BLACKSBURG     FAIR      78  66  68 E3        30.25F
DUBLIN*        FAIR      79  66  64 E7        30.24S
MARION*        CLOUDY    69  60  71 NE7       30.26S THUNDER
HILLSVILLE*    CLOUDY    73  65  75 S7        30.24S
RICHLANDS*     FAIR      76  10   8 CALM      30.24F
WISE*          PTSUNNY   77  64  65 S3        30.25F
ABINGDON*      FAIR      78  68  71 CALM      30.23S
$$

MDZ021>025-VAZ099-100-211700-
SOUTHERN MARYLAND AND THE DELMARVA PENINSULA

CITY           SKY/WX    TMP DP  RH WIND       PRES   REMARKS
PATUXENT RIVER FAIR      79  60  52 VRB7      30.20S
BAY BRIDGE APT FAIR      72  61  68 N12       30.21S
LEONARDTOWN    FAIR      73  61  64 CALM      30.22S
DOVER          NOT AVBL
GEORGETOWN     FAIR      74  56  53 NE6G18    30.21S
EASTON         MOSUNNY   75  59  57 N6        30.24S
CAMBRIDGE      SUNNY     75  59  57 NE7       30.20S
SALISBURY      FAIR      76  59  55 NE9       30.19S
TANGIER        FAIR      75  63  64 E10       30.19S
OCEAN CITY     FAIR      68  58  70 E12       30.22R
WALLOPS ISLAND FAIR      72  58  61 NE17      30.21R
ACCOMACK*      FAIR      72  55  55 E12       30.19S
$$

NCZ012>017-030>032-211700-
NORTH CENTRAL AND EASTERN NORTH CAROLINA

CITY           SKY/WX    TMP DP  RH WIND       PRES   REMARKS
ROANOKE RAPIDS PTSUNNY   81  72  74 CALM      30.15S
RALEIGH        CLOUDY    80  71  74 W5        30.16S
ELIZABETH CITY CLOUDY    83  74  74 NE6       30.15R
AHOSKIE*       PTSUNNY   80  72  76 CALM      30.15S
EDENTON*       CLOUDY    80  73  80 NW3       30.16S
CURRITUCK*     NOT AVBL
KILL DEVIL HLS FAIR      77  71  81 CALM      30.14S
MANTEO         PTSUNNY   78  72  81 N6        30.16S
CAPE HATTERAS  FAIR      79  72  79 SW10      30.16S
TARBORO*       NOT AVBL
GOLDSBORO      PTSUNNY   81  68  65 S8        30.15F
WASHINGTON     PTSUNNY   80  71  74 SW6       30.16S
GREENVILLE     FAIR      81  70  69 W5        30.16S
NEW BERN       FAIR      82  72  71 W8        30.16F
WILMINGTON     FAIR      83  68  60 W7        30.17F
$$

VAZ048-211700-
ELSEWHERE

CITY           SKY/WX    TMP DP  RH WIND       PRES   REMARKS
HARRISBURG PA  FAIR      73  59  61 S5        30.22F
BALTIMORE      PTSUNNY   74  57  55 SE8       30.20F
ANNAPOLIS      FAIR      74  59  59 E7        30.21S
ANDREWS AFB    NOT AVBL
PHILADELPHIA   FAIR      72  50  45 CALM      30.21S
HENDERSON NC   PTSUNNY   77  68  72 E5        30.17R
GREENSBORO     CLOUDY    77  67  71 N6        30.17S
ROCKY MOUNT    FAIR      81  70  69 VRB3      30.15S
$$

VAZ100-211700-
MARINE

STATION/POSITION TIME  TEMP    WIND        PRES    WAVE   SWELL
                       AIR SEA DIR/SP/G            HT/PER HT/PER
                 (UTC) (F)     (DEG/KT/KT) (MB)    (FT/S) (FT/S)
BRANDYWINE LGT   1542   68      10/  5/  5 1023.2R
CAPE MAY NJ      1548   67 64  110/ 12/ 16 1022.3R
LEWES DE         1542   65 64   90/ 11/ 14 1023.1R
15NM E FENWICK I 1550   57 58   50/  6/  8 1023.1R   4/ 8   3/ 8
OCEAN-CITY-INLET 1542   67 61   70/  5/ 11 1023.7R
WACHAPREAGUE VA  1542   68 74   50/ 16/ 21 1022.4F
THOMAS POINT MD  1600   67 66   10/ 10/ 10 1023.9F
GOOSES REEF MD   1600   69      10/  8/ 10 1023.5    1/ 2
COVE POINT MD    1542   69     350/  9/ 10 1023.6R
SOLOMONS ISLAND  1542   71 70  100/  6/  7 1022.5F
BISHOPS HEAD MD  1542   73 74  140/  2/  4 1023.3R
PINEY POINT MD   1542          130/  6/  7   N/A
POTOMAC MD       1600   71 71   40/  8     1022.2    0
CAMBRIDGE MD     1542   73 73              1023.7F
LEWISETTA VA     1542   72 73   70/  5/  7 1022.8R
RAPPAHANNOCK LGT 1542           80/ 12/ 13 1023.0R
STINGRAY PT      1550   71     110/ 10/ 12 1025.0R
YORK RVR RNG VA  1542   70      90/ 14/ 16 1022.6R
YORKTOWN VA      1542   70 73   70/ 14/ 17 1022.0R
DOMINION TERM VA 1542   71      70/ 14/ 20 1022.3R
KIPTOPEKE VA     1542      71   60/ 12/ 17   N/A
CAPE HENRY VA    1542   67      50/ 16/ 19   N/A
WILLOUBY STN VA  1542           70/ 13/ 14   N/A
S CRANEY ISL VA  1542   70      50/ 16/ 19 1021.5R
CAPE HENRY BUOY  1530      65                N/A     3/ 9
1ST LANDING BUOY 1600   67 70   80/ 17/ 21 1021.8    2/ 4
64NM E OF VA BCH 1550   66 69   70/ 12/ 14 1021.5R   4/ 8   3/ 8
DUCK PIER NC     1542   76 55  280/  4/  7 1020.7R
44100 DUCK FRF   1545      69                N/A     3/ 9
44056 DUCK FRF   1530      62                N/A     2/ 8
OREGON INLET NC  1542   78 76  230/  3/  4 1020.9S
HATTERAS NC      1542   78 75  220/  9/ 12 1021.2R
DIAMOND SHLS NC  1550   75 74  240/ 14/ 16 1021.9S   4/ 8   3/ 8
CAPE LOOKOUT NC  1500          230/ 10/ 13 1022.1S
$$




USA.gov is the U.S. government's official web portal to all federal, state and local government web resources and services.